Hourly Data Report for May 22, 2012

All times are specified in Local Standard Time (LST). Add 1 hour to adjust for Daylight Saving Time where and when it is observed.

Metadata including Station Name, Province, Latitude, Longitude, Elevation, Climate ID, WMO ID, TC ID
SYDNEY A
NOVA SCOTIA
Latitude: 46°10'00.000" N Longitude: 60°02'53.300" W Elevation: 61.90 m
Climate ID: 8205700 WMO ID: 71707 TC ID: YQY
Hourly Data Report for May 22, 2012
Temp Definition
°C

Dew Point Temp Definition
°C

Rel Hum Definition
%

Wind Dir Definition
10's deg
Wind Spd Definition
km/h

Visibility Definition
km

Stn Press Definition
kPa

Hmdx Definition

Wind Chill Definition

Weather Definition

TIME
00:00 13.7 1.3 43 23 17 24.1 101.49 Mainly Clear
01:00 12.3 1.5 48 23 17 24.1 101.44 Mainly Clear
02:00 12.0 2.4 52 22 20 24.1 101.42 Mainly Clear
03:00 11.5 4.3 61 23 19 24.1 101.41 Mainly Clear
04:00 12.3 6.5 68 23 20 24.1 101.43 Mostly Cloudy
05:00 11.3 6.2 71 23 11 24.1 101.44 Mainly Clear
06:00 13.4 6.5 63 23 17 24.1 101.41 Mainly Clear
07:00 15.3 6.3 55 23 20 24.1 101.41 Mostly Cloudy
08:00 17.4 8.4 55 25 26 24.1 101.38 Mostly Cloudy
09:00 19.1 11.3 61 26 22 24.1 101.35 Mostly Cloudy
10:00 21.7 13.7 60 23 22 24.1 101.29 25 Mostly Cloudy
11:00 21.9 14.7 64 22 22 24.1 101.26 26 Mostly Cloudy
12:00 21.6 15.0 66 20 17 24.1 101.23 26 Mostly Cloudy
13:00 22.0 14.7 63 20 19 24.1 101.17 26 Mostly Cloudy
14:00 20.7 14.2 66 20 22 24.1 101.19 Mostly Cloudy
15:00 20.6 12.6 60 22 30 24.1 101.13 Mostly Cloudy
16:00 19.8 12.3 62 21 20 24.1 101.11 Mostly Cloudy
17:00 18.7 8.3 51 20 17 24.1 101.07 Mostly Cloudy
18:00 17.6 8.4 55 21 17 24.1 101.04 Mostly Cloudy
19:00 16.7 8.4 58 20 11 24.1 100.98 Rain Showers
20:00 15.2 9.7 70 20 20 24.1 100.97 Cloudy
21:00 14.6 12.9 90 20 15 24.1 100.96 Cloudy
22:00 14.2 13.1 93 18 9 4.8 100.87 Fog
23:00 13.4 12.6 95 18 15 1.2 100.83 Fog

Notes on Data Quality.

Legend
  • E = Estimated
  • M = Missing
  • NA = Not Available
  • ‡ = Partner data that is not subject to review by the National Climate Archives